"Pseudo-MPEC" for C3ZZVF2

Created 2020 Nov 27 11:07:12 UT using Find_Orb

Click here for an explanation of pseudo-MPECs

 
 Astrometry: 
     C3ZZVF2  C2020 11 22.29980004 35 58.69 +29 46 54.6    ~BM87       VNEOCPG96
     C3ZZVF2  C2020 11 22.30488204 36 07.66 +29 47 25.8    ~BM87 18.65GVNEOCPG96
     C3ZZVF2  C2020 11 22.30996804 36 16.93 +29 47 57.6    ~BM87 18.64GVNEOCPG96
     C3ZZVF2  C2020 11 22.31505804 36 26.36 +29 48 29.3    ~BM87 18.63GVNEOCPG96
     C3ZZVF2 mC2020 11 22.33771604 37 10.67 +29 50 50.0    ~BM8b 17.85GVNEOCPI52
     C3ZZVF2 mC2020 11 22.33790504 37 11.06 +29 50 51.3    ~BM8b 18.02GVNEOCPI52
     C3ZZVF2 mC2020 11 22.33809304 37 11.46 +29 50 52.4    ~BM8b 18.00GVNEOCPI52
     C3ZZVF2 mC2020 11 22.33828104 37 11.85 +29 50 53.4    ~BM8b 18.04GVNEOCPI52
     C3ZZVF2 mC2020 11 22.37777404 38 40.65 +29 54 59.9    ~BM9M 18.00GVNEOCPI52
     C3ZZVF2 mC2020 11 22.37796204 38 41.11 +29 55 01.0    ~BM9M 17.87GVNEOCPI52
     C3ZZVF2 mC2020 11 22.37815004 38 41.57 +29 55 02.2    ~BM9M 18.04GVNEOCPI52
     C3ZZVF2 mC2020 11 22.37833804 38 42.03 +29 55 03.4    ~BM9M 18.07GVNEOCPI52
     C3ZZVF2 mC2020 11 22.41959104 40 35.94 +29 59 22.7    ~BMAM 17.68GVNEOCPI52
     C3ZZVF2 mC2020 11 22.41977904 40 36.52 +29 59 23.9    ~BMAM 17.85GVNEOCPI52
     C3ZZVF2 mC2020 11 22.41996604 40 37.11 +29 59 25.0    ~BMAM 17.68GVNEOCPI52
     C3ZZVF2 mC2020 11 22.42015404 40 37.69 +29 59 26.3    ~BMAM 17.71GVNEOCPI52
     C3ZZVF2 mC2020 11 22.46263504 43 07.25 +30 03 59.2    ~BMBM 17.44GVNEOCPI52
     C3ZZVF2 mC2020 11 22.46282304 43 08.00 +30 04 00.4    ~BMBM 17.31GVNEOCPI52
     C3ZZVF2 mC2020 11 22.46301104 43 08.76 +30 04 01.5    ~BMBM 17.33GVNEOCPI52
     C3ZZVF2 mC2020 11 22.46319904 43 09.51 +30 04 02.8    ~BMBM 17.54GVNEOCPI52

Station data:
(G96) Mt. Lemmon Survey  (N32.442754 W110.788720)  US/Arizona.  Observers T.
   A. Pruyne, B. M. Africano, E. J. Christensen, G. A. Farneth, D. C. Fuls,
   A. R. Gibbs, A. D. Grauer, H. Gröller, J. A. Johnson, R. A. Kowalski, S.
   M. Larson, G. J. Leonard, D. Rankin, R. L. Seaman, F. C. Shelly. 1.5-m
   reflector + 10K CCD.
(I52) Steward Observatory, Mt. Lemmon Station  (N32.442547 W110.788920)
   US/Arizona.  Observers T. A. Pruyne, B. M. Africano, E. J. Christensen, G.
   A. Farneth, D. C. Fuls, A. R. Gibbs, A. D. Grauer, H. Gröller, J. A.
   Johnson, R. A. Kowalski, S. M. Larson, G. J. Leonard, D. Rankin, R. L.
   Seaman, F. C. Shelly. 1.0-m reflector + CCD.

Orbital elements:  C3ZZVF2
   Perihelion 2021 Jan 8.648300 +/- 0.0798 TT = 15:33:33 (JD 2459223.148300)
Epoch 2020 Nov 22.0 TT = JDT 2459175.5   Earth MOID: 0.0000   Ve: 0.0147
M 339.65284757 +/- 0.19             Ma: 0.0714                AutoNEOCP
n   0.42702787 +/- 0.00348          Peri.  281.62301 +/- 0.012
a   1.74648649 +/- 0.00949          Node   240.71399 +/- 0.00029
e   0.7186334 +/- 0.00204           Incl.    6.14188 +/- 0.021
P   2.31/843.02d           H 28.7   G  0.15   U  8.9  
q 0.49140283 +/- 0.000895    Q 3.00157015 +/- 0.02
From 20 observations 2020 Nov. 22 (3.9 hr); mean residual 0".16
Residuals in arcseconds: 
201122 G96  .66+  .04+    201122 I52  .10+  .11-    201122 I52  .16+  .10-    
201122 G96  .53-  .24-    201122 I52  .10+  .05+    201122 I52  .14+  .01+    
201122 G96  .12-  .03+    201122 I52  .05+  .03-    201122 I52  .04-  .08+    
201122 G96  .02-  .15+    201122 I52  .01-  .00     201122 I52  .08-  .05+    
201122 I52  .18-  .01+    201122 I52  .07-  .02+    201122 I52  .00   .08-    
201122 I52  .14-  .13+    201122 I52  .00   .02-    201122 I52  .06-  .01-    
201122 I52  .04+  .06+    201122 I52  .00   .01-    

Ephemerides (geocentric):
Date (UTC) HH   RA              Dec         delta   r     elong  mag " sig PA
---- -- -- --  -------------   -----------  ------ ------ -----  --- ---- ---
2020 11 27 11  16 19 08.826   -29 00 03.06  .06127 .92598   7.9 41?? 19.2 104
2020 11 27 12  16 19 09.913   -29 00 04.58  .06183 .92542   7.9 41?? 19.3 104
2020 11 27 13  16 19 10.981   -29 00 06.03  .06238 .92486   7.9 41?? 19.3 104
2020 11 27 14  16 19 12.029   -29 00 07.39  .06293 .92431   7.9 41?? 19.3 104
2020 11 27 15  16 19 13.058   -29 00 08.68  .06349 .92375   7.8 41?? 19.3 104
2020 11 27 16  16 19 14.069   -29 00 09.89  .06404 .92319   7.8 41?? 19.3 104
2020 11 27 17  16 19 15.061   -29 00 11.03  .06459 .92264   7.8 41?? 19.3 104
2020 11 27 18  16 19 16.035   -29 00 12.10  .06515 .92208   7.8 41?? 19.3 104
2020 11 27 19  16 19 16.993   -29 00 13.10  .06570 .92152   7.8 41?? 19.3 104
2020 11 27 20  16 19 17.933   -29 00 14.03  .06625 .92097   7.8 41?? 19.3 104
2020 11 27 21  16 19 18.858   -29 00 14.88  .06681 .92041   7.8 41?? 19.4 104
2020 11 27 22  16 19 19.766   -29 00 15.68  .06736 .91985   7.8 41?? 19.4 104
2020 11 27 23  16 19 20.659   -29 00 16.40  .06791 .91929   7.8 41?? 19.4 104
2020 11 28 00  16 19 21.537   -29 00 17.07  .06847 .91874   7.7 41?? 19.4 104
2020 11 28 01  16 19 22.400   -29 00 17.67  .06902 .91818   7.7 41?? 19.4 104
2020 11 28 02  16 19 23.249   -29 00 18.20  .06958 .91762   7.7 41?? 19.4 104
2020 11 28 03  16 19 24.084   -29 00 18.68  .07013 .91707   7.7 41?? 19.4 104
2020 11 28 04  16 19 24.905   -29 00 19.10  .07068 .91651   7.7 41?? 19.4 104
2020 11 28 05  16 19 25.713   -29 00 19.45  .07124 .91595   7.7 41?? 19.4 104
2020 11 28 06  16 19 26.507   -29 00 19.75  .07179 .91539   7.7 41?? 19.4 104
2020 11 28 07  16 19 27.290   -29 00 19.99  .07235 .91483   7.7 41?? 19.5 104
2020 11 28 08  16 19 28.060   -29 00 20.18  .07290 .91428   7.7 41?? 19.5 104
2020 11 28 09  16 19 28.817   -29 00 20.31  .07346 .91372   7.7 41?? 19.5 104
2020 11 28 10  16 19 29.563   -29 00 20.39  .07401 .91316   7.6 41?? 19.5 104
2020 11 28 11  16 19 30.298   -29 00 20.41  .07457 .91260   7.6 41?? 19.5 104
2020 11 28 12  16 19 31.021   -29 00 20.38  .07512 .91205   7.6 42?? 19.5 104
2020 11 28 13  16 19 31.734   -29 00 20.30  .07568 .91149   7.6 42?? 19.5 104
2020 11 28 14  16 19 32.435   -29 00 20.16  .07623 .91093   7.6 42?? 19.5 104
2020 11 28 15  16 19 33.127   -29 00 19.98  .07679 .91037   7.6 42?? 19.5 104
2020 11 28 16  16 19 33.808   -29 00 19.74  .07734 .90981   7.6 42?? 19.5 104
2020 11 28 17  16 19 34.479   -29 00 19.46  .07790 .90925   7.6 42?? 19.5 104
2020 11 28 18  16 19 35.141   -29 00 19.13  .07845 .90870   7.6 42?? 19.5 104
2020 11 28 19  16 19 35.793   -29 00 18.75  .07901 .90814   7.6 42?? 19.5 104
2020 11 28 20  16 19 36.435   -29 00 18.32  .07956 .90758   7.6 42?? 19.6 104
2020 11 28 21  16 19 37.069   -29 00 17.85  .08012 .90702   7.6 42?? 19.6 104
2020 11 28 22  16 19 37.694   -29 00 17.33  .08067 .90646   7.6 42?? 19.6 104
2020 11 28 23  16 19 38.310   -29 00 16.77  .08123 .90590   7.5 42?? 19.6 104
2020 11 29 00  16 19 38.918   -29 00 16.16  .08179 .90535   7.5 42?? 19.6 104
2020 11 29 01  16 19 39.518   -29 00 15.50  .08234 .90479   7.5 42?? 19.6 104
2020 11 29 02  16 19 40.109   -29 00 14.81  .08290 .90423   7.5 42?? 19.6 104
2020 11 29 03  16 19 40.693   -29 00 14.07  .08345 .90367   7.5 42?? 19.6 104
2020 11 29 04  16 19 41.269   -29 00 13.28  .08401 .90311   7.5 42?? 19.6 104
2020 11 29 05  16 19 41.837   -29 00 12.46  .08457 .90255   7.5 42?? 19.6 104
2020 11 29 06  16 19 42.398   -29 00 11.59  .08512 .90199   7.5 42?? 19.6 104
2020 11 29 07  16 19 42.952   -29 00 10.69  .08568 .90143   7.5 42?? 19.6 104
2020 11 29 08  16 19 43.499   -29 00 09.74  .08624 .90087   7.5 42?? 19.6 104
2020 11 29 09  16 19 44.039   -29 00 08.75  .08679 .90031   7.5 42?? 19.6 104
2020 11 29 10  16 19 44.573   -29 00 07.72  .08735 .89975   7.5 42?? 19.6 104